Weather History for Akron, OH

Change the Weather History Date:

Friday, November 15, 2013

  Actual Average (KCAK) Record (KCAK)
Temperature  
Mean Temperature 44 °F 42 °F  
Max Temperature 51 °F 50 °F 72 °F (1964)
Min Temperature 37 °F 34 °F 10 °F (1933)
Degree Days  
Heating Degree Days 21 23  
Month to date heating degree days 310  
Since 1 July heating degree days 865  
Cooling Degree Days 0 0  
Month to date cooling degree days 0  
Year to date cooling degree days 652  
Moisture  
Dew Point 24 °F    
Average Humidity 45    
Maximum Humidity 62    
Minimum Humidity 31    
Precipitation  
Precipitation 0.00 in 0.12 in 0.95 in (2008)
Month to date precipitation 1.62  
Year to date precipitation 35.10  
Snow  
Snow 0.00 in 0.10 in - ()
Month to date snowfall 1.0  
Since 1 July snowfall 1.4  
Since 1 September snowfall 1.4  
Snow Depth -    
Sea Level Pressure  
Sea Level Pressure 30.14 in    
Wind  
Wind Speed 10 mph (SSW)    
Max Wind Speed 15 mph    
Max Gust Speed 20 mph    
Visibility 10 miles    
Events      
T = Trace of Precipitation, MM = Missing Value Source: NWS Daily Summary

Daily Weather History Graph

Daily Weather History Graph

Search for Another Location

Airport:

Trip Planner

Search our weather history database for the weather conditions in past years. The results will help you decide how hot, cold, wet, or windy it might be!

Date:

Astronomy

Nov. 15, 2013 Rise Set
Actual Time 7:13 AM EST 5:06 PM EST
Civil Twilight 6:44 AM EST 5:36 PM EST
Nautical Twilight 6:10 AM EST 6:09 PM EST
Astronomical Twilight 5:38 AM EST 6:42 PM EST
Moon 4:03 PM EST (11/15) 5:07 AM EST (11/15)
Length of Visible Light 10h 52m
Length of Day
9h 53m
Waxing Gibbous, 96% of the Moon is Illuminated
Nov 15
Waxing Gibbous
Nov 17
Full
Nov 25
Last Quarter
Dec 2
New
Dec 9
First Quarter

Hourly Weather History & Observations

Time (EST) Temp. Windchill Dew Point Humidity Pressure Visibility Wind Dir Wind Speed Gust Speed Precip Events Conditions
12:54 AM 39.0 °F 34.0 °F 19.0 °F 45% 30.14 in 10.0 mi SSW 6.9 mph - N/A   Clear
1:54 AM 39.0 °F 33.4 °F 19.9 °F 46% 30.13 in 10.0 mi South 8.1 mph - N/A   Clear
2:54 AM 39.0 °F 33.4 °F 19.9 °F 46% 30.15 in 10.0 mi SSW 8.1 mph - N/A   Clear
3:54 AM 37.9 °F 31.5 °F 19.9 °F 48% 30.14 in 10.0 mi SSW 9.2 mph - N/A   Clear
4:54 AM 37.0 °F 30.4 °F 19.9 °F 50% 30.15 in 10.0 mi SSW 9.2 mph - N/A   Clear
5:54 AM 37.9 °F 30.5 °F 19.9 °F 48% 30.16 in 10.0 mi SSW 11.5 mph - N/A   Clear
6:54 AM 37.0 °F 29.3 °F 19.9 °F 50% 30.16 in 10.0 mi SSW 11.5 mph - N/A   Clear
7:54 AM 37.0 °F 29.3 °F 19.9 °F 50% 30.17 in 10.0 mi SSW 11.5 mph - N/A   Clear
8:54 AM 41.0 °F 33.9 °F 19.9 °F 43% 30.16 in 10.0 mi SSW 12.7 mph - N/A   Clear
9:54 AM 45.0 °F 38.9 °F 21.9 °F 40% 30.17 in 10.0 mi SSW 12.7 mph - N/A   Clear
10:54 AM 46.9 °F - 21.0 °F 36% 30.16 in 10.0 mi SW 13.8 mph - N/A   Clear
11:54 AM 50.0 °F - 23.0 °F 35% 30.14 in 10.0 mi SSW 11.5 mph - N/A   Clear
12:54 PM 50.0 °F - 21.9 °F 33% 30.12 in 10.0 mi SW 15.0 mph - N/A   Clear
1:54 PM 51.1 °F - 21.0 °F 31% 30.11 in 10.0 mi SW 12.7 mph 19.6 mph N/A   Clear
2:54 PM 51.1 °F - 25.0 °F 36% 30.11 in 10.0 mi SW 13.8 mph - N/A   Clear
3:54 PM 50.0 °F - 26.1 °F 39% 30.11 in 10.0 mi SSW 9.2 mph - N/A   Clear
4:54 PM 48.9 °F - 27.0 °F 43% 30.11 in 10.0 mi SSW 11.5 mph - N/A   Clear
5:54 PM 48.9 °F - 26.1 °F 41% 30.12 in 10.0 mi SW 12.7 mph - N/A   Clear
6:54 PM 46.9 °F - 28.0 °F 48% 30.12 in 10.0 mi South 8.1 mph - N/A   Clear
7:54 PM 46.9 °F - 28.0 °F 48% 30.12 in 10.0 mi South 8.1 mph - N/A   Scattered Clouds
8:54 PM 46.9 °F - 28.0 °F 48% 30.12 in 10.0 mi SSW 9.2 mph - N/A   Scattered Clouds
9:54 PM 45.0 °F 40.6 °F 28.9 °F 53% 30.14 in 10.0 mi SSW 8.1 mph - N/A   Partly Cloudy
10:54 PM 42.1 °F 38.4 °F 30.0 °F 62% 30.14 in 10.0 mi SSW 5.8 mph - N/A   Clear
11:54 PM 42.1 °F 38.4 °F 30.0 °F 62% 30.16 in 10.0 mi South 5.8 mph - N/A   Scattered Clouds